This is the latest recevied weather packets stored in our database for station/object KH6DH-13. If no packets are shown the sender has not sent any weather packets the latest 10 day(s).
| Time | Temp. | Humidity | Pressure | Rain* | Wind** | Luminosity | Snow |
|---|---|---|---|---|---|---|---|
| 1778032371 | 28.33° C | - | - | 0 mm | 2.24 m/s, 159° | - | - |
| 1778031770 | 28.33° C | - | - | 0 mm | 2.24 m/s, 242° | - | - |
| 1778031169 | 29.44° C | - | - | 0 mm | 3.13 m/s, 277° | - | - |
| 1778030568 | 29.44° C | - | - | 0 mm | 1.34 m/s, 270° | - | - |
| 1778029967 | 30° C | - | - | 0 mm | 2.24 m/s, 233° | - | - |
| 1778029366 | 30.56° C | - | - | 0 mm | 2.24 m/s, 145° | - | - |
| 1778028765 | 29.44° C | - | - | 0 mm | 1.34 m/s, 238° | - | - |
| 1778028164 | 28.89° C | - | - | 0 mm | 0.89 m/s, 194° | - | - |
| 1778027563 | 28.89° C | - | - | 0 mm | 1.79 m/s, 146° | - | - |
| 1778026962 | 28.89° C | - | - | 0 mm | 1.79 m/s, 149° | - | - |
| 1778026361 | 28.89° C | - | - | 0 mm | 1.34 m/s, 148° | - | - |
| 1778025760 | 28.89° C | - | - | 0 mm | 3.13 m/s, 228° | - | - |
| 1778025159 | 28.33° C | - | - | 0 mm | 1.79 m/s, 76° | - | - |
| 1778024558 | 28.89° C | - | - | 0 mm | 0.89 m/s, 142° | - | - |
| 1778023957 | 29.44° C | - | - | 0 mm | 2.24 m/s, 129° | - | - |
| 1778023356 | 28.89° C | - | - | 0 mm | 1.79 m/s, 150° | - | - |
| 1778022755 | 29.44° C | - | - | 0 mm | 3.58 m/s, 138° | - | - |
| 1778022154 | 28.89° C | - | - | 0 mm | 2.24 m/s, 129° | - | - |
| 1778021553 | 28.89° C | - | - | 0 mm | 1.79 m/s, 203° | - | - |
| 1778020952 | 28.89° C | - | - | 0 mm | 1.34 m/s, 117° | - | - |
| 1778020351 | 28.89° C | - | - | 0 mm | 3.13 m/s, 160° | - | - |
| 1778019750 | 28.89° C | - | - | 0 mm | 2.24 m/s, 108° | - | - |
| 1778019149 | 28.89° C | - | - | 0 mm | 1.79 m/s, 129° | - | - |
| 1778018547 | 28.89° C | - | - | 0 mm | 3.13 m/s, 205° | - | - |
| 1778017944 | 28.89° C | - | - | 0 mm | 2.24 m/s, 101° | - | - |
* Rain latest hour (hover to see other rain measurements)
** Current wind speed in m/s (hover to see current wind gust speed)